Regional Weather Roundup
Issued by NWS

Home | Current Version | Previous Version | Graphics & Text | Print | Product List | Glossary On
Versions: 1 2 3 4 5 6 7 8 9 10 11 12 13 14 15 16 17 18 19 20 21 22 23 24 25 26 27 28 29 30 31 32 33 34 35 36 37 38 39 40 41 42 43 44 45 46 47 48 49 50
000
ASUS45 KTFX 290710
RWRMT
MONTANA REGIONAL WEATHER ROUNDUP
NATIONAL WEATHER SERVICE GREAT FALLS MT
100 AM MDT FRI MAY 29 2015

NOTE: "FAIR" INDICATES FEW OR NO CLOUDS BELOW 12000 FEET WITH NO
SIGNIFICANT WEATHER AND/OR OBSTRUCTIONS TO VISIBILITY.

MTZ001>007-043-290800-
WEST OF THE DIVIDE

CITY           SKY/WX    TMP DP  RH WIND       PRES   REMARKS
KALISPELL      SUNNY     48  42  80 CALM      30.20S
MISSOULA       CLEAR     55  44  66 E14       30.22S
BUTTE          CLOUDY    47  42  83 W6        30.29S
MULLAN PASS    CLEAR     46  41  82 SE9       30.23F
DEER LODGE       N/A     46  43  87 NW7       30.32F
EUREKA           N/A     52  48  87 NE3       30.20
HAMILTON         N/A     50  46  87 CALM      30.21R
LIBBY            N/A     54  54 100 CALM      30.20F VSB 3/4
PLAINS           N/A     54  49  83 CALM      30.18S
RONAN            N/A     52  47  83 CALM      30.23R
THOMPSON FALLS   N/A     53  49  86 CALM      30.21R
$$

MTZ008-052>055-290800-
SOUTHWEST MONTANA

CITY           SKY/WX    TMP DP  RH WIND       PRES   REMARKS
BOZEMAN        MOCLDY    49  47  93 CALM      30.27S
DILLON         CLOUDY    48  44  86 NE8       30.27S
THREE FORKS      N/A     50  24  36 CALM      30.24S
$$

MTZ009-010-012-014-046-048-049-054-290800-
EAST SLOPES AND CENTRAL MONTANA

CITY           SKY/WX    TMP DP  RH WIND       PRES   REMARKS
CUT BANK       CLEAR     40  38  93 CALM      30.31F
GREAT FALLS    CLOUDY    45  44  97 N5        30.32F FOG
MALMSTROM AFB  CLOUDY    46  45  93 N6        30.33S
HELENA         CLOUDY    50  43  77 NW7       30.30F
CONRAD           N/A     46  46 100 CALM      30.31F
$$

MTZ011-013-016-021-045-047-050-051-290800-
NORTH CENTRAL MONTANA

CITY           SKY/WX    TMP DP  RH WIND       PRES   REMARKS
HAVRE          CLEAR     40  38  93 SW6       30.30S
LEWISTOWN      CLOUDY    47  44  90 N9        30.29S FOG
N BAR RANCH    CLOUDY    45  43  93 N9G15     30.31R FOG
CHINOOK          N/A     43  43 100 CALM      30.30R
FORT BENTON      N/A     48  43  81 CALM      30.33S
$$

MTZ017>020-022>027-061-062-290800-
NORTHEAST MONTANA

CITY           SKY/WX    TMP DP  RH WIND       PRES   REMARKS
GLASGOW        CLEAR     43  38  82 N8        30.27R
JORDAN           N/A     50  44  80 N13       30.24R
SIDNEY         CLOUDY    48  36  61 NW17      30.19R
WOLF POINT     CLEAR     43  38  82 N5        30.26R
MALTA            N/A     42  35  76 CALM      30.24R
PLENTYWOOD       N/A     37  34  87 N7        30.24R
POPLAR           N/A     43  36  75 NW3       30.26R
SCOBEY           N/A     37  31  79 N1        30.23R
$$

MTZ028>42-056>058-290800-
SOUTHCENTRAL AND SOUTHEAST MONTANA

CITY           SKY/WX    TMP DP  RH WIND       PRES   REMARKS
BAKER          CLOUDY    50  45  83 N15G26    30.13R
BILLINGS       LGT RAIN  51  49  92 N16G23    30.23R
LIVINGSTON     CLOUDY    49  46  90 NW7       30.26S
MILES CITY     CLOUDY    51  45  79 N15G24    30.20R
BIG TIMBER       N/A     50  48  93 CALM      30.27S
EKALAKA          N/A     52  48  86 N16       30.08S
LAUREL           N/A     52  47  83 N8        30.20R
ROUNDUP          N/A     48  43  83 N10       30.16R
$$

REGIONAL REPORTS...DAKOTAS

CITY           SKY/WX    TMP DP  RH WIND       PRES   REMARKS
WILLISTON      CLOUDY    49  37  63 N12       30.18R
MINOT          CLOUDY    49  41  74 N22       30.10R
DICKINSON      CLOUDY    52  47  83 N17G26    30.07R
BEACH          CLOUDY    46  46 100 N21G28    30.15R
CROSBY         CLOUDY    45  37  76 N16G24    30.20R
WATFORD CITY   CLOUDY    46  41  81 N17       30.14R
BISMARCK       CLOUDY    56  50  80 N20G28    29.99R
GRAND FORKS    CLOUDY    59  56  89 N18G24    29.90R
FARGO          LGT RAIN  63  61  93 S5        29.85R
BUFFALO SD       N/A     56  52  86 N20       30.00S
RAPID CITY     CLOUDY    58  50  75 NW23G30   29.99F
$$

REGIONAL REPORTS...WYOMING/IDAHO/WASHINGTON

CITY           SKY/WX    TMP DP  RH WIND       PRES   REMARKS
GILLETTE       CLOUDY    52  50  93 N10       30.13S
SHERIDAN       LGT RAIN  51  49  92 NW13      30.19S
BUFFALO WY     CLOUDY    50  47  89 NW15G28   30.20R
CODY           CLOUDY    50  45  81 N5        30.23F
YELLOWSTONE LA   N/A     37  35  92 CALM      30.32F
IDAHO FALLS    CLEAR     48  46  93 N5        30.22S
SALMON         MOCLDY    48  45  87 CALM      30.21S
BOISE          CLEAR     61  46  57 E5        30.05F
SPOKANE        CLOUDY    61  51  70 CALM      30.11S
$$

REGIONAL REPORTS...ALBERTA

CITY           SKY/WX    TMP DP  RH WIND       PRES   REMARKS
EDMONTON       CLEAR     39  27  60 E5        30.32S
CALGARY        MOCLDY    48  41  76 S9        30.27F
LETHBRIDGE     CLEAR     39  39 100 SW8       30.30F
MEDICINE HAT   CLEAR     41  34  75 E2        30.31S
$$

REGIONAL REPORTS...SASKATCHEWAN

CITY           SKY/WX    TMP DP  RH WIND       PRES   REMARKS
SWIFT CURRENT  CLEAR     36  28  75 E7        30.30R WCI  30
SASKATOON      CLEAR     34  28  80 NE9       30.35S WCI  26
$$


USA.gov is the U.S. government's official web portal to all federal, state and local government web resources and services.